This demonstration page uses our WeatherBlox Daily Observations layout. Learn more.

Left ArrowRight Arrow

36.19886, -115.1175

Hourly Observations for December 2, 2015

Temp ( °F °C ) Dew Point ( °F °C ) Humidity (%) Winds ( mph kmh ) Pressure ( in mb ) Visibility ( mi km ) Precip ( " mm )
12:53 am 00:53 Clear 37 2.8 14 -10 39 39 WNW 5 7 30.31 1026 10 16 0.00 0.00
1:53 am 01:53 Clear 35 1.7 13 -10.6 40 40 Calm 30.31 1027 10 16 0.00 0.00
2:53 am 02:53 Clear 36 2.2 14 -10 40 40 NW 10 17 30.32 1027 10 16 0.00 0.00
3:53 am 03:53 Clear 38 3.3 10 -12.2 31 31 NW 7 11 30.33 1027 10 16 0.00 0.00
4:53 am 04:53 Clear 42 5.6 7 -13.9 23 23 NNW 10 17 30.33 1027 10 16 0.00 0.00
5:53 am 05:53 Clear 37 2.8 9 -12.8 31 31 Calm 30.36 1028 10 16 0.00 0.00
6:53 am 06:53 Sunny 36 2.2 13 -10.6 39 39 WSW 3 6 30.38 1029 10 16 0.00 0.00
7:53 am 07:53 Sunny 39 3.9 13 -10.6 34 34 E 3 6 30.38 1029 10 16 0.00 0.00
8:53 am 08:53 Sunny 46 7.8 10 -12.2 23 23 NNE 5 7 30.39 1029 10 16 0.00 0.00
9:53 am 09:53 Sunny 51 10.6 11 -11.7 20 20 Calm 30.37 1029 10 16 0.00 0.00
10:53 am 10:53 Sunny 52 11.1 12 -11.1 20 20 Calm 30.37 1029 10 16 0.00 0.00
11:53 am 11:53 Sunny 56 13.3 10 -12.2 16 16 Calm 30.34 1027 10 16 0.00 0.00
12:53 pm 12:53 Sunny 57 13.9 9 -12.8 15 15 E 5 7 30.31 1026 10 16 0.00 0.00
1:53 pm 13:53 Sunny 58 14.4 11 -11.7 15 15 SE 3 6 30.29 1026 10 16 0.00 0.00
2:53 pm 14:53 Sunny 58 14.4 10 -12.2 15 15 Calm 30.27 1025 10 16 0.00 0.00
3:53 pm 15:53 Sunny 58 14.4 9 -12.8 14 14 Calm 30.26 1025 10 16 0.00 0.00
4:53 pm 16:53 Clear 55 12.8 11 -11.7 17 17 Calm 30.26 1025 10 16 0.00 0.00
5:53 pm 17:53 Clear 52 11.1 15 -9.4 23 23 WNW 6 9 30.28 1025 10 16 0.00 0.00
6:53 pm 18:53 Clear 50 10 18 -7.8 28 28 NW 3 6 30.30 1026 10 16 0.00 0.00
7:53 pm 19:53 Clear 47 8.3 19 -7.2 33 33 Calm 30.31 1026 10 16 0.00 0.00
8:53 pm 20:53 Clear 46 7.8 18 -7.8 32 32 Calm 30.30 1026 10 16 0.00 0.00
9:53 pm 21:53 Clear 45 7.2 19 -7.2 35 35 N 3 6 30.30 1026 10 16 0.00 0.00
10:53 pm 22:53 Clear 43 6.1 17 -8.3 35 35 NW 6 9 30.30 1026 10 16 0.00 0.00
11:53 pm 23:53 Clear 41 5 16 -8.9 36 36 NW 7 11 30.28 1025 10 16 0.00 0.00

Powered by AerisWeather